contact: severine.martini@mio.osupytheas.fr, dominique.lefevre@mio.osupytheas.fr
Project:EMSO Ligure-ouest http://www.emso-fr.org/EMSO-France
Sensor Optode, line 4330 Serial 272 
DOI : "https://doi.org/10.17882/97948" 
Title:EMSO Ligure Ouest : Data BathyDock capteur Optode - deploiement "2023-04-28"
Datetime,Profondeur,Latitude,Longitude,optode_type,serial,O2_concentration,O2_saturation,Temperature,Calibrated_Phase,Temp_Compensated_Phase,phase_blue_light,phase_red_light,Amplitude_blue_light,Amplitude_red_light,thermistor_bridge
time,m,degree_north,degree_east,1,1,umol.l-1,%,degree_C,degree,degree,degree,degree,mV,mV,mV
2023-12-02T00:00:07,2420,42.8014,5.9826,4330,272,186.613,57.147,13.304,36.033,36.613,41.199,4.586,295.5,544.9,291.4
2023-12-02T00:03:08,2420,42.8014,5.9826,4330,272,186.756,57.191,13.305,36.023,36.603,41.193,4.591,295.5,544.9,291.4
2023-12-02T00:06:08,2420,42.8014,5.9826,4330,272,186.846,57.221,13.306,36.017,36.597,41.192,4.595,295.5,544.9,291.3
2023-12-02T00:09:07,2420,42.8014,5.9826,4330,272,186.914,57.241,13.306,36.012,36.592,41.183,4.590,295.5,544.8,291.4
2023-12-02T00:12:07,2420,42.8014,5.9826,4330,272,186.618,57.150,13.305,36.032,36.612,41.202,4.590,295.5,545.0,291.4
2023-12-02T00:15:07,2420,42.8014,5.9826,4330,272,186.823,57.213,13.306,36.019,36.599,41.188,4.589,295.6,544.9,291.4
2023-12-02T00:18:07,2420,42.8014,5.9826,4330,272,186.797,57.205,13.305,36.021,36.601,41.197,4.596,295.5,545.0,291.4
2023-12-02T00:21:07,2420,42.8014,5.9826,4330,272,186.841,57.218,13.305,36.017,36.597,41.186,4.588,295.5,544.9,291.4
2023-12-02T00:24:07,2420,42.8014,5.9826,4330,272,186.586,57.140,13.305,36.034,36.614,41.207,4.593,295.6,544.9,291.4
2023-12-02T00:27:07,2420,42.8014,5.9826,4330,272,186.799,57.207,13.306,36.020,36.600,41.190,4.590,295.6,544.9,291.4
2023-12-02T00:30:07,2420,42.8014,5.9826,4330,272,186.899,57.239,13.308,36.012,36.592,41.184,4.592,295.5,545.0,291.3
2023-12-02T00:33:07,2420,42.8014,5.9826,4330,272,186.884,57.238,13.310,36.012,36.592,41.186,4.593,295.5,545.0,291.2
2023-12-02T00:36:07,2420,42.8014,5.9826,4330,272,186.782,57.200,13.305,36.022,36.602,41.191,4.589,295.6,544.9,291.4
2023-12-02T00:39:08,2420,42.8014,5.9826,4330,272,186.730,57.191,13.311,36.022,36.602,41.198,4.596,295.5,544.8,291.2
2023-12-02T00:42:08,2420,42.8014,5.9826,4330,272,186.743,57.191,13.308,36.023,36.603,41.191,4.588,295.5,544.9,291.3
2023-12-02T00:45:08,2420,42.8014,5.9826,4330,272,186.639,57.156,13.305,36.031,36.611,41.198,4.587,295.5,544.9,291.4
2023-12-02T00:48:08,2420,42.8014,5.9826,4330,272,186.971,57.258,13.305,36.008,36.589,41.181,4.592,295.5,544.9,291.4
2023-12-02T00:51:07,2420,42.8014,5.9826,4330,272,187.142,57.313,13.307,35.996,36.577,41.173,4.596,295.5,544.9,291.3
2023-12-02T00:54:07,2420,42.8014,5.9826,4330,272,186.660,57.164,13.306,36.029,36.609,41.193,4.584,295.6,545.0,291.4
2023-12-02T00:57:07,2420,42.8014,5.9826,4330,272,186.920,57.245,13.307,36.011,36.591,41.180,4.589,295.5,545.0,291.3
2023-12-02T01:00:07,2420,42.8014,5.9826,4330,272,186.747,57.190,13.305,36.023,36.604,41.195,4.592,295.5,544.9,291.4
2023-12-02T01:03:07,2420,42.8014,5.9826,4330,272,186.846,57.222,13.307,36.016,36.596,41.187,4.591,295.6,544.9,291.3
2023-12-02T01:06:07,2420,42.8014,5.9826,4330,272,186.593,57.145,13.308,36.032,36.613,41.199,4.587,295.6,544.9,291.3
2023-12-02T01:09:07,2420,42.8014,5.9826,4330,272,186.765,57.199,13.308,36.021,36.601,41.198,4.597,295.6,544.9,291.3
2023-12-02T01:12:07,2420,42.8014,5.9826,4330,272,186.416,57.090,13.306,36.044,36.624,41.212,4.588,295.6,544.9,291.3
2023-12-02T01:15:07,2420,42.8014,5.9826,4330,272,186.620,57.154,13.308,36.030,36.610,41.195,4.585,295.5,544.9,291.3
2023-12-02T01:18:07,2420,42.8014,5.9826,4330,272,186.706,57.183,13.310,36.024,36.604,41.195,4.591,295.5,544.9,291.2
2023-12-02T01:21:07,2420,42.8014,5.9826,4330,272,186.490,57.115,13.308,36.039,36.619,41.207,4.588,295.6,544.9,291.3
2023-12-02T01:24:08,2420,42.8014,5.9826,4330,272,186.658,57.166,13.308,36.028,36.608,41.194,4.585,295.6,544.9,291.3
2023-12-02T01:27:08,2420,42.8014,5.9826,4330,272,187.024,57.276,13.306,36.005,36.586,41.176,4.590,295.5,544.9,291.3
2023-12-02T01:30:08,2420,42.8014,5.9826,4330,272,186.654,57.164,13.308,36.028,36.609,41.192,4.584,295.6,544.9,291.3
2023-12-02T01:33:07,2420,42.8014,5.9826,4330,272,186.787,57.204,13.307,36.020,36.600,41.190,4.590,295.5,544.9,291.3
2023-12-02T01:36:07,2420,42.8014,5.9826,4330,272,186.764,57.199,13.309,36.020,36.600,41.190,4.590,295.5,544.9,291.3
2023-12-02T01:39:07,2420,42.8014,5.9826,4330,272,186.686,57.175,13.308,36.026,36.606,41.194,4.588,295.6,544.9,291.3
2023-12-02T01:42:07,2420,42.8014,5.9826,4330,272,186.852,57.225,13.308,36.015,36.596,41.187,4.591,295.5,544.9,291.3
2023-12-02T01:45:07,2420,42.8014,5.9826,4330,272,186.884,57.235,13.308,36.013,36.593,41.187,4.594,295.5,544.9,291.3
2023-12-02T01:48:07,2420,42.8014,5.9826,4330,272,186.718,57.184,13.308,36.024,36.604,41.198,4.594,295.5,545.0,291.3
2023-12-02T01:51:07,2420,42.8014,5.9826,4330,272,186.708,57.181,13.308,36.024,36.604,41.196,4.592,295.5,544.9,291.3
2023-12-02T01:54:08,2420,42.8014,5.9826,4330,272,186.755,57.198,13.310,36.021,36.601,41.191,4.590,295.6,544.9,291.2
2023-12-02T01:57:08,2420,42.8014,5.9826,4330,272,186.928,57.249,13.308,36.011,36.591,41.182,4.591,295.6,544.9,291.3
2023-12-02T02:00:08,2420,42.8014,5.9826,4330,272,186.920,57.246,13.308,36.011,36.591,41.184,4.593,295.5,544.9,291.3
2023-12-02T02:03:07,2420,42.8014,5.9826,4330,272,186.707,57.182,13.309,36.024,36.604,41.198,4.594,295.6,544.9,291.3
2023-12-02T02:06:07,2420,42.8014,5.9826,4330,272,186.652,57.163,13.307,36.029,36.609,41.197,4.588,295.5,544.9,291.3
2023-12-02T02:09:07,2420,42.8014,5.9826,4330,272,186.923,57.247,13.308,36.011,36.591,41.182,4.591,295.5,544.9,291.3
2023-12-02T02:12:07,2420,42.8014,5.9826,4330,272,186.818,57.212,13.306,36.018,36.598,41.186,4.588,295.6,544.9,291.4
2023-12-02T02:15:07,2420,42.8014,5.9826,4330,272,186.515,57.121,13.308,36.037,36.617,41.204,4.586,295.6,544.9,291.3
2023-12-02T02:18:07,2420,42.8014,5.9826,4330,272,186.872,57.233,13.309,36.013,36.594,41.183,4.589,295.5,545.0,291.2
2023-12-02T02:21:07,2420,42.8014,5.9826,4330,272,186.875,57.240,13.314,36.011,36.591,41.180,4.589,295.5,544.8,291.1
2023-12-02T02:24:07,2420,42.8014,5.9826,4330,272,186.676,57.178,13.313,36.024,36.605,41.193,4.589,295.5,544.9,291.1
2023-12-02T02:27:08,2420,42.8014,5.9826,4330,272,186.695,57.179,13.310,36.025,36.605,41.199,4.594,295.6,544.9,291.2
2023-12-02T02:30:08,2420,42.8014,5.9826,4330,272,186.712,57.185,13.310,36.023,36.603,41.195,4.592,295.5,544.9,291.2
2023-12-02T02:33:07,2420,42.8014,5.9826,4330,272,186.698,57.184,13.313,36.023,36.603,41.199,4.596,295.6,544.8,291.1
2023-12-02T02:36:07,2420,42.8014,5.9826,4330,272,186.610,57.154,13.310,36.030,36.610,41.194,4.584,295.5,544.8,291.2
2023-12-02T02:39:07,2420,42.8014,5.9826,4330,272,186.833,57.220,13.308,36.016,36.597,41.191,4.595,295.6,544.9,291.3
2023-12-02T02:42:07,2420,42.8014,5.9826,4330,272,186.785,57.207,13.310,36.019,36.599,41.190,4.591,295.5,544.8,291.2
2023-12-02T02:45:07,2420,42.8014,5.9826,4330,272,186.826,57.222,13.312,36.015,36.595,41.188,4.593,295.5,544.9,291.2
2023-12-02T02:48:07,2420,42.8014,5.9826,4330,272,186.758,57.200,13.311,36.019,36.600,41.187,4.587,295.6,544.9,291.2
2023-12-02T02:51:07,2420,42.8014,5.9826,4330,272,186.622,57.157,13.310,36.029,36.609,41.197,4.587,295.5,544.9,291.2
2023-12-02T02:54:08,2420,42.8014,5.9826,4330,272,186.613,57.155,13.310,36.030,36.610,41.202,4.592,295.6,544.9,291.2
2023-12-02T02:57:08,2420,42.8014,5.9826,4330,272,186.863,57.234,13.313,36.012,36.592,41.184,4.591,295.5,544.9,291.1
2023-12-02T03:00:08,2420,42.8014,5.9826,4330,272,186.683,57.178,13.312,36.024,36.604,41.191,4.587,295.5,544.9,291.2
2023-12-02T03:03:07,2420,42.8014,5.9826,4330,272,186.777,57.202,13.308,36.020,36.600,41.190,4.589,295.5,544.9,291.3
2023-12-02T03:06:07,2420,42.8014,5.9826,4330,272,186.738,57.192,13.310,36.022,36.602,41.191,4.589,295.5,544.8,291.2
2023-12-02T03:09:07,2420,42.8014,5.9826,4330,272,186.878,57.241,13.314,36.010,36.591,41.182,4.592,295.5,544.8,291.1
2023-12-02T03:12:07,2420,42.8014,5.9826,4330,272,186.617,57.160,13.313,36.028,36.608,41.193,4.585,295.5,544.8,291.1
2023-12-02T03:15:07,2420,42.8014,5.9826,4330,272,186.558,57.139,13.311,36.033,36.613,41.198,4.586,295.5,544.9,291.2
2023-12-02T03:18:08,2420,42.8014,5.9826,4330,272,186.312,57.063,13.310,36.049,36.629,41.213,4.584,295.6,544.9,291.2
2023-12-02T03:21:08,2420,42.8014,5.9826,4330,272,186.854,57.229,13.311,36.014,36.594,41.182,4.588,295.5,544.9,291.2
2023-12-02T03:24:08,2420,42.8014,5.9826,4330,272,186.644,57.165,13.311,36.028,36.608,41.193,4.586,295.5,544.8,291.2
2023-12-02T03:27:08,2420,42.8014,5.9826,4330,272,186.581,57.146,13.311,36.032,36.612,41.205,4.594,295.6,544.9,291.2
2023-12-02T03:30:07,2420,42.8014,5.9826,4330,272,186.585,57.147,13.311,36.032,36.612,41.200,4.589,295.5,544.8,291.2
2023-12-02T03:33:07,2420,42.8014,5.9826,4330,272,186.887,57.240,13.312,36.011,36.592,41.181,4.589,295.5,544.9,291.2
2023-12-02T03:36:07,2420,42.8014,5.9826,4330,272,186.694,57.183,13.313,36.023,36.603,41.193,4.590,295.6,544.9,291.1
2023-12-02T03:39:07,2420,42.8014,5.9826,4330,272,186.438,57.106,13.314,36.039,36.619,41.204,4.585,295.6,544.8,291.1
2023-12-02T03:42:07,2420,42.8014,5.9826,4330,272,186.515,57.137,13.320,36.032,36.612,41.199,4.587,295.5,544.9,290.9
2023-12-02T03:45:08,2420,42.8014,5.9826,4330,272,186.839,57.226,13.312,36.015,36.595,41.186,4.591,295.6,544.8,291.2
2023-12-02T03:48:08,2420,42.8014,5.9826,4330,272,186.457,57.107,13.310,36.040,36.620,41.207,4.587,295.6,544.8,291.2
2023-12-02T03:51:08,2420,42.8014,5.9826,4330,272,186.858,57.235,13.315,36.012,36.592,41.182,4.590,295.5,544.9,291.1
2023-12-02T03:54:08,2420,42.8014,5.9826,4330,272,186.760,57.203,13.313,36.019,36.599,41.193,4.594,295.5,544.9,291.1
2023-12-02T03:57:08,2420,42.8014,5.9826,4330,272,186.496,57.121,13.312,36.037,36.617,41.203,4.587,295.7,544.8,291.2
2023-12-02T04:00:08,2420,42.8014,5.9826,4330,272,186.786,57.212,13.313,36.017,36.597,41.187,4.590,295.5,544.8,291.1
2023-12-02T04:03:07,2420,42.8014,5.9826,4330,272,186.756,57.200,13.311,36.020,36.600,41.189,4.589,295.6,544.8,291.2
2023-12-02T04:06:07,2420,42.8014,5.9826,4330,272,186.895,57.246,13.314,36.009,36.590,41.182,4.592,295.5,544.8,291.1
2023-12-02T04:09:07,2420,42.8014,5.9826,4330,272,186.649,57.169,13.312,36.026,36.607,41.197,4.591,295.6,544.9,291.1
2023-12-02T04:12:08,2420,42.8014,5.9826,4330,272,186.918,57.246,13.308,36.011,36.591,41.185,4.594,295.6,544.9,291.3
2023-12-02T04:15:08,2420,42.8014,5.9826,4330,272,186.700,57.184,13.312,36.023,36.603,41.194,4.590,295.6,544.9,291.2
2023-12-02T04:18:08,2420,42.8014,5.9826,4330,272,186.659,57.166,13.309,36.028,36.608,41.199,4.591,295.6,544.9,291.3
2023-12-02T04:21:08,2420,42.8014,5.9826,4330,272,186.709,57.184,13.310,36.024,36.604,41.196,4.592,295.6,544.9,291.2
2023-12-02T04:24:08,2420,42.8014,5.9826,4330,272,186.883,57.236,13.309,36.013,36.593,41.184,4.592,295.6,544.9,291.3
2023-12-02T04:27:08,2420,42.8014,5.9826,4330,272,186.506,57.121,13.310,36.037,36.617,41.205,4.589,295.6,544.8,291.2
2023-12-02T04:30:07,2420,42.8014,5.9826,4330,272,186.295,57.055,13.308,36.051,36.631,41.220,4.588,295.6,544.9,291.3
2023-12-02T04:33:07,2420,42.8014,5.9826,4330,272,186.674,57.171,13.309,36.026,36.606,41.194,4.588,295.5,544.8,291.3
2023-12-02T04:36:07,2420,42.8014,5.9826,4330,272,186.779,57.208,13.312,36.018,36.598,41.188,4.590,295.6,544.9,291.2
2023-12-02T04:39:07,2420,42.8014,5.9826,4330,272,186.747,57.195,13.309,36.022,36.602,41.193,4.591,295.5,544.9,291.2
2023-12-02T04:42:08,2420,42.8014,5.9826,4330,272,186.719,57.185,13.308,36.024,36.604,41.194,4.590,295.5,544.9,291.3
2023-12-02T04:45:08,2420,42.8014,5.9826,4330,272,186.787,57.206,13.309,36.019,36.599,41.197,4.598,295.6,544.9,291.3
2023-12-02T04:48:08,2420,42.8014,5.9826,4330,272,186.531,57.129,13.310,36.035,36.616,41.203,4.587,295.5,544.9,291.2
2023-12-02T04:51:08,2420,42.8014,5.9826,4330,272,186.730,57.189,13.309,36.023,36.603,41.192,4.589,295.6,544.9,291.3
2023-12-02T04:54:08,2420,42.8014,5.9826,4330,272,186.501,57.121,13.311,36.037,36.617,41.211,4.594,295.5,544.9,291.2
2023-12-02T04:57:07,2420,42.8014,5.9826,4330,272,186.730,57.191,13.310,36.023,36.603,41.196,4.594,295.5,544.8,291.2
2023-12-02T05:00:07,2420,42.8014,5.9826,4330,272,186.527,57.129,13.311,36.035,36.615,41.204,4.589,295.5,544.9,291.2
2023-12-02T05:03:07,2420,42.8014,5.9826,4330,272,186.666,57.167,13.307,36.028,36.608,41.194,4.586,295.6,544.8,291.3
2023-12-02T05:06:07,2420,42.8014,5.9826,4330,272,186.497,57.121,13.312,36.037,36.617,41.207,4.590,295.5,544.8,291.2
2023-12-02T05:09:07,2420,42.8014,5.9826,4330,272,187.012,57.275,13.309,36.005,36.585,41.178,4.593,295.6,544.9,291.3
2023-12-02T05:12:08,2420,42.8014,5.9826,4330,272,186.878,57.237,13.311,36.012,36.592,41.184,4.592,295.6,544.9,291.2
2023-12-02T05:15:08,2420,42.8014,5.9826,4330,272,186.735,57.190,13.308,36.022,36.602,41.192,4.589,295.6,544.9,291.3
2023-12-02T05:18:07,2420,42.8014,5.9826,4330,272,186.648,57.162,13.307,36.029,36.609,41.196,4.588,295.5,544.9,291.3
2023-12-02T05:21:07,2420,42.8014,5.9826,4330,272,186.620,57.153,13.307,36.031,36.611,41.199,4.588,295.5,544.8,291.3
2023-12-02T05:24:07,2420,42.8014,5.9826,4330,272,186.667,57.168,13.308,36.027,36.607,41.202,4.594,295.6,544.9,291.3
2023-12-02T05:27:07,2420,42.8014,5.9826,4330,272,186.767,57.200,13.309,36.020,36.600,41.191,4.590,295.6,544.8,291.3
2023-12-02T05:30:07,2420,42.8014,5.9826,4330,272,186.528,57.126,13.308,36.037,36.617,41.203,4.586,295.6,544.9,291.3
2023-12-02T05:33:08,2420,42.8014,5.9826,4330,272,186.549,57.131,13.307,36.036,36.616,41.206,4.591,295.5,544.9,291.3
2023-12-02T05:36:07,2420,42.8014,5.9826,4330,272,186.830,57.220,13.310,36.016,36.596,41.190,4.594,295.5,544.8,291.2
2023-12-02T05:39:07,2420,42.8014,5.9826,4330,272,186.682,57.172,13.307,36.026,36.607,41.198,4.592,295.6,544.9,291.3
2023-12-02T05:42:07,2420,42.8014,5.9826,4330,272,186.749,57.192,13.307,36.022,36.602,41.193,4.591,295.5,544.9,291.3
2023-12-02T05:45:07,2420,42.8014,5.9826,4330,272,186.853,57.226,13.308,36.015,36.595,41.188,4.593,295.6,544.8,291.3
2023-12-02T05:48:07,2420,42.8014,5.9826,4330,272,186.800,57.211,13.310,36.018,36.598,41.191,4.593,295.6,544.9,291.2
2023-12-02T05:51:07,2420,42.8014,5.9826,4330,272,187.105,57.304,13.309,35.998,36.579,41.173,4.595,295.5,544.9,291.2
2023-12-02T05:54:08,2420,42.8014,5.9826,4330,272,186.652,57.168,13.311,36.027,36.607,41.198,4.591,295.5,544.8,291.2
2023-12-02T05:57:08,2420,42.8014,5.9826,4330,272,186.801,57.209,13.308,36.018,36.598,41.195,4.597,295.6,544.9,291.3
2023-12-02T06:00:08,2420,42.8014,5.9826,4330,272,186.881,57.233,13.307,36.014,36.594,41.185,4.591,295.6,544.9,291.3
2023-12-02T06:03:07,2420,42.8014,5.9826,4330,272,186.460,57.103,13.307,36.042,36.622,41.214,4.592,295.5,544.9,291.3
2023-12-02T06:06:07,2420,42.8014,5.9826,4330,272,186.991,57.268,13.309,36.005,36.586,41.175,4.590,295.5,544.9,291.3
2023-12-02T06:09:07,2420,42.8014,5.9826,4330,272,186.764,57.197,13.307,36.021,36.602,41.195,4.593,295.6,544.9,291.3
2023-12-02T06:12:07,2420,42.8014,5.9826,4330,272,186.639,57.159,13.307,36.029,36.609,41.192,4.582,295.5,544.9,291.3
2023-12-02T06:15:07,2420,42.8014,5.9826,4330,272,186.483,57.110,13.307,36.040,36.620,41.207,4.587,295.6,544.9,291.3
2023-12-02T06:18:08,2420,42.8014,5.9826,4330,272,186.575,57.138,13.306,36.034,36.614,41.201,4.587,295.5,545.0,291.4
2023-12-02T06:21:08,2420,42.8014,5.9826,4330,272,186.718,57.182,13.307,36.024,36.604,41.198,4.594,295.6,544.9,291.3
2023-12-02T06:24:08,2420,42.8014,5.9826,4330,272,186.591,57.145,13.308,36.032,36.612,41.206,4.593,295.6,544.9,291.3
2023-12-02T06:27:08,2420,42.8014,5.9826,4330,272,186.851,57.227,13.310,36.015,36.595,41.187,4.592,295.6,544.8,291.2
2023-12-02T06:30:08,2420,42.8014,5.9826,4330,272,186.553,57.130,13.305,36.036,36.616,41.208,4.592,295.5,544.9,291.4
2023-12-02T06:33:07,2420,42.8014,5.9826,4330,272,186.639,57.157,13.306,36.030,36.610,41.197,4.587,295.5,544.9,291.4
2023-12-02T06:36:07,2420,42.8014,5.9826,4330,272,186.643,57.158,13.306,36.030,36.610,41.200,4.590,295.5,544.9,291.4
2023-12-02T06:39:07,2420,42.8014,5.9826,4330,272,186.695,57.176,13.307,36.025,36.605,41.198,4.593,295.6,544.9,291.3
2023-12-02T06:42:07,2420,42.8014,5.9826,4330,272,186.716,57.181,13.306,36.025,36.605,41.193,4.588,295.6,544.9,291.4
2023-12-02T06:45:07,2420,42.8014,5.9826,4330,272,186.851,57.222,13.306,36.017,36.597,41.187,4.591,295.5,544.9,291.4
2023-12-02T06:48:07,2420,42.8014,5.9826,4330,272,186.963,57.255,13.305,36.010,36.590,41.184,4.594,295.5,544.8,291.4
2023-12-02T06:51:07,2420,42.8014,5.9826,4330,272,186.713,57.183,13.308,36.024,36.604,41.191,4.587,295.6,544.8,291.3
2023-12-02T06:54:08,2420,42.8014,5.9826,4330,272,186.667,57.169,13.308,36.027,36.607,41.198,4.591,295.6,544.9,291.3
2023-12-02T06:57:08,2420,42.8014,5.9826,4330,272,186.687,57.172,13.306,36.027,36.607,41.193,4.586,295.5,544.9,291.4
2023-12-02T07:00:08,2420,42.8014,5.9826,4330,272,186.738,57.189,13.307,36.023,36.603,41.191,4.588,295.5,544.9,291.3
2023-12-02T07:03:07,2420,42.8014,5.9826,4330,272,186.600,57.148,13.308,36.032,36.612,41.201,4.589,295.6,544.9,291.3
2023-12-02T07:06:07,2420,42.8014,5.9826,4330,272,186.750,57.192,13.307,36.023,36.603,41.193,4.590,295.5,544.9,291.3
2023-12-02T07:09:07,2420,42.8014,5.9826,4330,272,186.836,57.216,13.305,36.018,36.598,41.189,4.591,295.4,544.9,291.4
2023-12-02T07:12:07,2420,42.8014,5.9826,4330,272,186.634,57.155,13.305,36.030,36.610,41.201,4.591,295.5,544.9,291.4
2023-12-02T07:15:07,2420,42.8014,5.9826,4330,272,186.787,57.204,13.307,36.020,36.600,41.190,4.590,295.6,544.9,291.3
2023-12-02T07:18:07,2420,42.8014,5.9826,4330,272,186.473,57.107,13.306,36.041,36.621,41.205,4.584,295.6,544.9,291.3
2023-12-02T07:21:08,2420,42.8014,5.9826,4330,272,186.478,57.107,13.305,36.041,36.621,41.215,4.594,295.5,544.9,291.4
2023-12-02T07:24:08,2420,42.8014,5.9826,4330,272,186.761,57.194,13.306,36.022,36.602,41.193,4.590,295.6,544.9,291.4
2023-12-02T07:27:08,2420,42.8014,5.9826,4330,272,186.635,57.160,13.309,36.029,36.609,41.197,4.588,295.5,544.9,291.3
2023-12-02T07:30:08,2420,42.8014,5.9826,4330,272,186.891,57.235,13.306,36.013,36.593,41.187,4.593,295.6,544.9,291.4
2023-12-02T07:33:07,2420,42.8014,5.9826,4330,272,186.887,57.232,13.305,36.015,36.595,41.185,4.590,295.6,544.9,291.4
2023-12-02T07:36:07,2420,42.8014,5.9826,4330,272,186.853,57.221,13.305,36.017,36.597,41.188,4.591,295.5,545.0,291.4
2023-12-02T07:39:07,2420,42.8014,5.9826,4330,272,186.749,57.191,13.306,36.023,36.603,41.193,4.590,295.5,544.9,291.3
2023-12-02T07:42:07,2420,42.8014,5.9826,4330,272,186.634,57.155,13.305,36.031,36.611,41.193,4.582,295.5,544.9,291.4
2023-12-02T07:45:08,2420,42.8014,5.9826,4330,272,186.765,57.195,13.305,36.022,36.603,41.192,4.590,295.6,544.9,291.4
2023-12-02T07:48:08,2420,42.8014,5.9826,4330,272,186.691,57.173,13.306,36.027,36.607,41.192,4.585,295.5,544.9,291.4
2023-12-02T07:51:08,2420,42.8014,5.9826,4330,272,186.595,57.144,13.306,36.033,36.613,41.203,4.590,295.5,544.9,291.4
2023-12-02T07:54:08,2420,42.8014,5.9826,4330,272,186.666,57.163,13.304,36.029,36.609,41.199,4.590,295.5,544.9,291.4
2023-12-02T07:57:07,2420,42.8014,5.9826,4330,272,187.011,57.270,13.305,36.007,36.587,41.181,4.594,295.5,544.9,291.4
2023-12-02T08:00:07,2420,42.8014,5.9826,4330,272,186.788,57.205,13.308,36.020,36.600,41.188,4.588,295.6,544.9,291.3
2023-12-02T08:03:07,2420,42.8014,5.9826,4330,272,186.618,57.150,13.306,36.032,36.612,41.207,4.595,295.5,545.0,291.4
2023-12-02T08:06:08,2420,42.8014,5.9826,4330,272,186.699,57.175,13.305,36.027,36.607,41.202,4.595,295.6,544.9,291.4
2023-12-02T08:09:08,2420,42.8014,5.9826,4330,272,186.795,57.203,13.305,36.020,36.601,41.193,4.592,295.5,544.9,291.4
2023-12-02T08:12:08,2420,42.8014,5.9826,4330,272,186.823,57.214,13.307,36.018,36.598,41.189,4.591,295.5,544.9,291.3
2023-12-02T08:15:08,2420,42.8014,5.9826,4330,272,186.877,57.230,13.305,36.015,36.595,41.185,4.590,295.5,545.0,291.4
2023-12-02T08:18:08,2420,42.8014,5.9826,4330,272,186.788,57.201,13.304,36.021,36.601,41.190,4.589,295.6,544.9,291.4
2023-12-02T08:21:07,2420,42.8014,5.9826,4330,272,186.612,57.148,13.305,36.032,36.612,41.199,4.587,295.5,544.9,291.4
2023-12-02T08:24:07,2420,42.8014,5.9826,4330,272,186.729,57.184,13.306,36.024,36.604,41.195,4.590,295.5,544.9,291.4
2023-12-02T08:27:07,2420,42.8014,5.9826,4330,272,186.953,57.251,13.304,36.010,36.591,41.186,4.595,295.6,545.0,291.4
2023-12-02T08:30:07,2420,42.8014,5.9826,4330,272,186.873,57.231,13.307,36.014,36.595,41.186,4.591,295.5,544.9,291.3
2023-12-02T08:33:07,2420,42.8014,5.9826,4330,272,186.650,57.159,13.305,36.030,36.610,41.202,4.592,295.5,544.9,291.4
2023-12-02T08:36:07,2420,42.8014,5.9826,4330,272,186.824,57.212,13.304,36.019,36.599,41.189,4.590,295.6,544.9,291.4
2023-12-02T08:39:08,2420,42.8014,5.9826,4330,272,186.534,57.124,13.305,36.037,36.617,41.210,4.593,295.6,544.9,291.4
2023-12-02T08:42:08,2420,42.8014,5.9826,4330,272,186.871,57.228,13.306,36.015,36.595,41.187,4.592,295.5,544.8,291.4
2023-12-02T08:45:08,2420,42.8014,5.9826,4330,272,186.564,57.133,13.305,36.035,36.615,41.206,4.591,295.5,545.0,291.4
2023-12-02T08:48:08,2420,42.8014,5.9826,4330,272,186.740,57.187,13.305,36.024,36.605,41.195,4.591,295.5,544.9,291.4
2023-12-02T08:51:08,2420,42.8014,5.9826,4330,272,186.791,57.201,13.304,36.022,36.602,41.193,4.591,295.5,544.9,291.4
2023-12-02T08:54:07,2420,42.8014,5.9826,4330,272,186.517,57.123,13.308,36.037,36.617,41.207,4.590,295.6,545.0,291.3
2023-12-02T08:57:07,2420,42.8014,5.9826,4330,272,186.830,57.216,13.306,36.018,36.598,41.188,4.590,295.5,544.9,291.4
2023-12-02T09:00:07,2420,42.8014,5.9826,4330,272,186.683,57.170,13.305,36.027,36.607,41.196,4.589,295.6,544.9,291.4
2023-12-02T09:03:08,2420,42.8014,5.9826,4330,272,186.698,57.174,13.305,36.027,36.607,41.204,4.597,295.5,545.0,291.4
2023-12-02T09:06:08,2420,42.8014,5.9826,4330,272,186.651,57.162,13.307,36.028,36.608,41.197,4.589,295.5,544.9,291.3
2023-12-02T09:09:08,2420,42.8014,5.9826,4330,272,186.704,57.180,13.308,36.025,36.605,41.194,4.590,295.5,544.9,291.3
2023-12-02T09:12:07,2420,42.8014,5.9826,4330,272,187.076,57.292,13.306,36.002,36.582,41.176,4.594,295.5,544.9,291.3
2023-12-02T09:15:08,2420,42.8014,5.9826,4330,272,186.615,57.149,13.305,36.032,36.612,41.206,4.594,295.5,544.8,291.4
2023-12-02T09:18:07,2420,42.8014,5.9826,4330,272,186.831,57.214,13.304,36.019,36.599,41.193,4.594,295.5,544.9,291.4
2023-12-02T09:21:07,2420,42.8014,5.9826,4330,272,186.857,57.222,13.304,36.017,36.597,41.188,4.591,295.6,544.9,291.4
2023-12-02T09:24:07,2420,42.8014,5.9826,4330,272,186.910,57.239,13.305,36.013,36.593,41.183,4.590,295.5,544.8,291.4
2023-12-02T09:27:07,2420,42.8014,5.9826,4330,272,186.649,57.160,13.306,36.030,36.610,41.192,4.582,295.6,544.9,291.4
2023-12-02T09:30:07,2420,42.8014,5.9826,4330,272,186.889,57.235,13.307,36.013,36.594,41.181,4.587,295.6,544.9,291.3
2023-12-02T09:33:07,2420,42.8014,5.9826,4330,272,186.784,57.202,13.307,36.020,36.600,41.193,4.592,295.5,545.0,291.3
2023-12-02T09:36:08,2420,42.8014,5.9826,4330,272,186.802,57.207,13.306,36.020,36.600,41.188,4.588,295.6,544.9,291.4
2023-12-02T09:39:08,2420,42.8014,5.9826,4330,272,186.673,57.170,13.307,36.027,36.607,41.197,4.590,295.6,544.9,291.3
2023-12-02T09:42:08,2420,42.8014,5.9826,4330,272,186.699,57.175,13.306,36.026,36.606,41.195,4.589,295.6,544.9,291.4
2023-12-02T09:45:08,2420,42.8014,5.9826,4330,272,186.903,57.239,13.306,36.013,36.593,41.185,4.592,295.5,544.9,291.3
2023-12-02T09:48:08,2420,42.8014,5.9826,4330,272,186.976,57.266,13.311,36.006,36.586,41.181,4.595,295.6,544.9,291.2
2023-12-02T09:51:08,2420,42.8014,5.9826,4330,272,186.636,57.155,13.305,36.031,36.611,41.203,4.592,295.6,544.9,291.4
2023-12-02T09:54:07,2420,42.8014,5.9826,4330,272,186.770,57.198,13.306,36.021,36.601,41.190,4.589,295.6,544.9,291.3
2023-12-02T09:57:07,2420,42.8014,5.9826,4330,272,186.533,57.126,13.306,36.036,36.616,41.203,4.587,295.5,544.9,291.3
2023-12-02T10:00:07,2420,42.8014,5.9826,4330,272,186.809,57.211,13.308,36.019,36.599,41.188,4.589,295.5,544.9,291.3